Location: Unspecified
(0.0000°N, 0.0000°E)
Time: 16:51:57
(UTC+02:00)

Cosmos 1125 Rocket - Visible Passes

Search period start: 22 June 2018 00:00
Search period end: 02 July 2018 00:00
Orbit: 758 x 780 km, 74.0° (Epoch: 21 June)

Date Brightness Start Highest point End Pass type
(mag) Time Alt. Az. Time Alt. Az. Time Alt. Az.
22 Jun 3.7 07:30:53 10° S 07:36:12 84° E 07:41:29 10° NNE visible
23 Jun 4.8 06:54:31 10° S 06:59:30 40° ESE 07:04:25 10° NNE visible
24 Jun 5.9 06:18:56 10° SSE 06:22:46 20° ESE 06:26:35 10° NE visible
25 Jun 3.8 07:22:45 10° SSW 07:27:51 48° WNW 07:32:54 10° N visible
26 Jun 3.6 06:45:59 11° S 06:51:09 83° E 06:56:25 10° NNE visible
27 Jun 4.7 06:10:54 18° SSE 06:14:26 40° ESE 06:19:21 10° NNE visible
28 Jun 5.7 05:35:47 17° SE 05:37:42 20° ESE 05:41:30 10° NE visible
28 Jun 4.7 07:16:08 13° SW 07:19:29 24° WNW 07:23:40 10° NNW visible
29 Jun 3.7 06:40:58 34° SW 06:42:47 48° WNW 06:47:50 10° N visible
30 Jun 3.4 06:05:45 77° SSE 06:06:05 83° ESE 06:11:21 10° NNE visible
01 Jul 4.9 05:30:27 36° ENE 05:30:27 36° ENE 05:34:16 10° NNE visible
01 Jul 5.4 07:10:47 11° W 07:11:08 11° WNW 07:12:49 10° WNW visible
